FW1304 Weather Reports


Display with metric or nautical units.
time (UTC)temp
F
wind
direction
speed
MPH
gust
MPH
rain 1hr
in
rain 24hr
in
rain mn
in
humidity
%
barometer
mb
20260831220340 89 23 0.0 0.0 0.00 0.00 0.00 42 1009.2
20260831215836 89 275 0.0 0.0 0.00 0.00 0.00 41 1009.2
20260831215340 89 269 0.0 0.0 0.00 0.00 0.00 39 1009.2
20260831214843 89 12 0.0 0.0 0.00 0.00 0.00 39 1009.2
20260831214328 89 28 0.0 0.0 0.00 0.00 0.00 40 1009.1
20260831213828 90 36 0.0 0.0 0.00 0.00 0.00 40 1009.1
20260831213341 90 338 0.0 0.0 0.00 0.00 0.00 39 1009.1
20260831212839 89 324 0.0 0.0 0.00 0.00 0.00 37 1009.2
20260831212342 90 26 0.0 0.0 0.00 0.00 0.00 38 1009.1
20260831211840 90 25 0.0 0.0 0.00 0.00 0.00 38 1009.1
20260831211325 90 20 0.0 0.0 0.00 0.00 0.00 39 1009.0
20260831210828 90 206 0.0 0.0 0.00 0.00 0.00 39 1008.9
20260831210331 89 271 0.0 0.0 0.00 0.00 0.00 39 1008.9
20260831205839 89 234 0.0 0.0 0.00 0.00 0.00 41 1009.0
20260831205342 89 329 0.0 0.0 0.00 0.00 0.00 41 1009.1
20260831204845 89 178 0.0 1.0 0.00 0.00 0.00 42 1009.1
20260831204338 89 24 0.0 1.0 0.00 0.00 0.00 41 1009.2
20260831203839 89 40 0.0 0.0 0.00 0.00 0.00 41 1009.2
20260831203319 88 31 0.0 0.0 0.00 0.00 0.00 41 1009.2
20260831202822 88 258 0.0 0.0 0.00 0.00 0.00 43 1009.2
20260831202324 88 5 0.0 0.0 0.00 0.00 0.00 41 1009.2
20260831201853 88 297 0.0 0.0 0.00 0.00 0.00 42 1009.2
20260831201320 88 312 0.0 0.0 0.00 0.00 0.00 42 1009.1
20260831200853 88 347 0.0 0.0 0.00 0.00 0.00 41 1009.1
20260831200345 88 323 0.0 0.0 0.00 0.00 0.00 41 1009.0
20260831195825 88 289 0.0 0.0 0.00 0.00 0.00 42 1008.9
20260831195339 88 39 0.0 1.0 0.00 0.00 0.00 41 1008.9
20260831194820 88 327 0.0 1.0 0.00 0.00 0.00 41 1008.8
20260831194341 88 313 0.0 0.0 0.00 0.00 0.00 44 1008.8
20260831193828 88 251 0.0 0.0 0.00 0.00 0.00 45 1008.8
20260831193341 88 299 0.0 0.0 0.00 0.00 0.00 44 1008.8
20260831192854 87 311 0.0 0.0 0.00 0.00 0.00 46 1008.8
20260831192337 87 253 0.0 0.0 0.00 0.00 0.00 46 1008.8
20260831191844 87 360 0.0 0.0 0.00 0.00 0.00 46 1009.0
20260831191330 87 321 0.0 0.0 0.00 0.00 0.00 47 1009.0
20260831190902 87 12 0.0 0.0 0.00 0.00 0.00 47 1009.1
20260831190345 86 295 0.0 0.0 0.00 0.00 0.00 49 1009.0
20260831185836 86 30 0.0 0.0 0.00 0.00 0.00 51 1009.1
20260831185317 86 335 0.0 0.0 0.00 0.00 0.00 52 1009.0
20260831184821 86 355 0.0 0.0 0.00 0.00 0.00 50 1008.9
20260831184401 86 320 0.0 0.0 0.00 0.00 0.00 49 1008.9
20260831183843 86 55 0.0 0.0 0.00 0.00 0.00 52 1008.8
20260831183317 86 313 0.0 0.0 0.00 0.00 0.00 50 1008.8
20260831182838 85 235 0.0 0.0 0.00 0.00 0.00 50 1008.8
20260831182341 85 338 0.0 1.0 0.00 0.00 0.00 50 1008.8
20260831181840 85 339 0.0 1.0 0.00 0.00 0.00 54 1008.9
20260831181323 85 290 0.0 1.0 0.00 0.00 0.00 51 1008.9
20260831180834 85 282 0.0 0.0 0.00 0.00 0.00 60 1009.0
20260831180318 84 282 0.0 1.0 0.00 0.00 0.00 60 1008.9
20260831175858 84 259 0.0 2.0 0.00 0.00 0.00 60 1008.9
20260831175339 83 287 0.0 2.0 0.00 0.00 0.00 64 1009.0
20260831174821 83 329 0.0 0.0 0.00 0.00 0.00 64 1009.0
20260831174331 83 31 0.0 0.0 0.00 0.00 0.00 66 1009.1
20260831173843 83 321 0.0 0.0 0.00 0.00 0.00 66 1009.2
20260831173316 82 30 0.0 0.0 0.00 0.00 0.00 67 1009.2
20260831172831 82 291 0.0 0.0 0.00 0.00 0.00 67 1009.3
20260831172359 82 286 0.0 0.0 0.00 0.00 0.00 68 1009.2
20260831171840 81 18 0.0 1.0 0.00 0.00 0.00 70 1009.3
20260831171325 81 333 0.0 1.0 0.00 0.00 0.00 70 1009.3
20260831170858 81 343 0.0 0.0 0.00 0.00 0.00 72 1009.4
20260831170335 80 328 0.0 0.0 0.00 0.00 0.00 74 1009.3
20260831165817 80 49 0.0 0.0 0.00 0.00 0.00 76 1009.3
20260831165350 80 21 0.0 0.0 0.00 0.00 0.00 76 1009.3
20260831164833 80 317 0.0 0.0 0.00 0.00 0.00 76 1009.3
20260831164316 79 287 0.0 0.0 0.00 0.00 0.00 78 1009.3
20260831163819 79 21 0.0 0.0 0.00 0.00 0.00 78 1009.4
20260831163329 79 331 0.0 0.0 0.00 0.00 0.00 79 1009.4
20260831162843 78 26 0.0 0.0 0.00 0.00 0.00 80 1009.3
20260831162342 78 38 0.0 0.0 0.00 0.00 0.00 79 1009.3
20260831161844 78 311 0.0 0.0 0.00 0.00 0.00 80 1009.2
20260831161334 78 9 0.0 0.0 0.00 0.00 0.00 82 1009.2
20260831160837 77 295 0.0 1.0 0.00 0.00 0.00 82 1009.1
20260831160404 77 313 0.0 1.0 0.00 0.00 0.00 83 1009.1
20260831155827 77 11 0.0 0.0 0.00 0.00 0.00 84 1009.0
20260831155330 77 323 0.0 0.0 0.00 0.00 0.00 83 1008.9
20260831154844 77 328 0.0 0.0 0.00 0.00 0.00 84 1008.9
20260831154334 76 336 0.0 0.0 0.00 0.00 0.00 85 1008.9
20260831153837 76 284 0.0 0.0 0.00 0.00 0.00 85 1008.8
20260831153340 76 308 0.0 0.0 0.00 0.00 0.00 86 1008.9
20260831152826 76 315 0.0 0.0 0.00 0.00 0.00 86 1008.9
20260831152325 76 299 0.0 0.0 0.00 0.00 0.00 86 1008.7
20260831151827 76 26 0.0 0.0 0.00 0.00 0.00 86 1008.7
20260831151329 76 292 0.0 0.0 0.00 0.00 0.00 87 1008.7
20260831150833 77 22 0.0 0.0 0.00 0.00 0.00 87 1008.6
20260831150334 76 355 0.0 0.0 0.00 0.00 0.00 87 1008.4
20260831145819 76 5 0.0 0.0 0.00 0.00 0.00 87 1008.3
20260831145322 76 5 0.0 0.0 0.00 0.00 0.00 88 1008.2
20260831144836 76 329 0.0 0.0 0.00 0.00 0.00 88 1008.1
20260831144318 76 323 0.0 1.0 0.00 0.00 0.00 88 1007.9
20260831114847 71 195 0.0 0.0 0.00 0.00 0.00 88 1005.5
20260831114320 71 195 0.0 0.0 0.00 0.00 0.00 87 1005.6
20260831113835 71 195 0.0 0.0 0.00 0.00 0.00 87 1005.7
20260831113329 71 195 0.0 0.0 0.00 0.00 0.00 87 1005.7
20260831112824 71 195 0.0 0.0 0.00 0.00 0.00 87 1005.7
20260831112340 70 195 0.0 0.0 0.00 0.00 0.00 88 1005.7
20260831111827 70 194 0.0 0.0 0.00 0.00 0.00 88 1005.5
20260831111337 71 194 0.0 0.0 0.00 0.00 0.00 88 1005.7
20260831110824 71 194 0.0 0.0 0.00 0.00 0.00 88 1005.6
20260831110340 71 194 0.0 0.0 0.00 0.00 0.00 88 1005.5
20260831105842 71 194 0.0 0.0 0.00 0.00 0.00 88 1005.5
20260831105332 71 194 0.0 0.0 0.00 0.00 0.00 88 1005.5
20260831104847 71 194 0.0 0.0 0.00 0.00 0.00 88 1005.5
20260831104326 71 194 0.0 0.0 0.00 0.00 0.00 88 1005.4
20260831103902 71 194 0.0 0.0 0.00 0.00 0.00 88 1005.5
20260831103327 71 194 0.0 0.0 0.00 0.00 0.00 88 1005.5
20260831102818 72 194 0.0 0.0 0.00 0.00 0.00 88 1005.5
20260831102402 72 194 0.0 0.0 0.00 0.00 0.00 88 1005.6
20260831101828 72 194 0.0 0.0 0.00 0.00 0.00 88 1005.5
20260831101323 72 194 0.0 0.0 0.00 0.00 0.00 88 1005.3
20260831100820 72 194 0.0 0.0 0.00 0.00 0.00 88 1005.3
20260831100356 72 194 0.0 0.0 0.00 0.00 0.00 88 1005.2
20260831095836 72 194 0.0 0.0 0.00 0.00 0.00 88 1005.2
20260831095321 72 194 0.0 0.0 0.00 0.00 0.00 88 1005.0
20260831094818 72 194 0.0 0.0 0.00 0.00 0.00 88 1005.2
20260831094320 72 215 0.0 0.0 0.00 0.00 0.00 88 1005.0
20260831093834 72 215 0.0 0.0 0.00 0.00 0.00 88 1004.9
20260831093321 72 215 0.0 0.0 0.00 0.00 0.00 88 1005.0
20260831092823 72 215 0.0 0.0 0.00 0.00 0.00 88 1005.1
20260831092317 72 215 0.0 0.0 0.00 0.00 0.00 88 1004.9
20260831091851 72 215 0.0 0.0 0.00 0.00 0.00 88 1004.8
20260831091332 72 215 0.0 0.0 0.00 0.00 0.00 88 1004.9
20260831090841 73 215 0.0 0.0 0.00 0.00 0.00 88 1005.2
20260831090314 73 215 0.0 0.0 0.00 0.00 0.00 88 1005.3
20260831085815 73 215 0.0 0.0 0.00 0.00 0.00 88 1005.3
20260831085329 73 216 0.0 0.0 0.00 0.00 0.00 88 1005.2
20260831084815 73 216 0.0 0.0 0.00 0.00 0.00 88 1005.2
20260831084317 73 216 0.0 0.0 0.00 0.00 0.00 88 1005.0
20260831083830 73 216 0.0 0.0 0.00 0.00 0.00 88 1005.0
20260831083316 73 216 0.0 0.0 0.00 0.00 0.00 88 1004.9
20260831082843 73 216 0.0 0.0 0.00 0.00 0.00 88 1004.9
20260831082327 73 216 0.0 0.0 0.00 0.00 0.00 88 1004.9
20260831081823 73 216 0.0 0.0 0.00 0.00 0.00 88 1004.8
20260831081325 73 216 0.0 0.0 0.00 0.00 0.00 88 1004.8
20260831080842 73 216 0.0 0.0 0.00 0.00 0.00 88 1004.7
20260831080357 73 216 0.0 0.0 0.00 0.00 0.00 88 1004.8
20260831075838 74 216 0.0 0.0 0.00 0.00 0.00 88 1004.9
20260831075324 74 216 0.0 0.0 0.00 0.00 0.00 87 1004.8
20260831074838 74 218 0.0 0.0 0.00 0.00 0.00 87 1004.8
20260831074321 74 218 0.0 0.0 0.00 0.00 0.00 87 1004.9
20260831073829 74 218 0.0 0.0 0.00 0.00 0.00 87 1004.9
20260831073324 74 218 0.0 0.0 0.00 0.00 0.00 88 1004.8
20260831072825 74 197 0.0 0.0 0.00 0.00 0.00 87 1004.8
20260831072341 74 194 0.0 0.0 0.00 0.00 0.00 87 1004.9
20260831071827 74 193 0.0 0.0 0.00 0.00 0.00 87 1004.9
20260831071320 74 182 0.0 0.0 0.00 0.00 0.00 87 1004.9
20260831070814 74 182 0.0 0.0 0.00 0.00 0.00 87 1004.9
20260831070326 74 175 0.0 0.0 0.00 0.00 0.00 87 1005.0
20260831065828 74 166 0.0 0.0 0.00 0.00 0.00 87 1005.0
20260831065314 74 181 0.0 0.0 0.00 0.00 0.00 87 1005.1
20260831064850 74 188 0.0 0.0 0.00 0.00 0.00 87 1005.1
20260831064330 74 195 0.0 0.0 0.00 0.00 0.00 87 1005.1
20260831063824 74 164 0.0 0.0 0.00 0.00 0.00 87 1005.1
20260831063330 75 191 0.0 0.0 0.00 0.00 0.00 87 1005.1
20260831062901 75 173 0.0 0.0 0.00 0.00 0.00 87 1005.3
20260831062346 75 202 0.0 0.0 0.00 0.00 0.00 87 1005.4
20260831061323 75 128 0.0 0.0 0.00 0.00 0.00 87 1005.5
20260831060836 75 198 0.0 0.0 0.00 0.00 0.00 87 1005.7
20260831060323 75 180 0.0 0.0 0.00 0.00 0.00 87 1005.5
20260831055825 75 173 0.0 0.0 0.00 0.00 0.00 86 1005.4
20260831055321 75 182 0.0 0.0 0.00 0.00 0.00 86 1005.5
20260831054826 75 191 0.0 0.0 0.00 0.00 0.00 86 1005.4
20260831054316 75 187 0.0 0.0 0.00 0.00 0.00 86 1005.3
20260831053830 75 187 0.0 0.0 0.00 0.00 0.00 86 1005.4
20260831053323 75 146 0.0 0.0 0.00 0.00 0.00 86 1005.5
20260831052826 75 142 0.0 0.0 0.00 0.00 0.00 85 1005.7
20260831052340 75 193 0.0 0.0 0.00 0.00 0.00 85 1005.7
20260831051824 75 206 0.0 0.0 0.00 0.00 0.00 85 1005.8
20260831051347 75 182 0.0 0.0 0.00 0.00 0.00 85 1005.8
20260831050832 76 146 0.0 0.0 0.00 0.00 0.00 85 1005.8
20260831050328 76 213 0.0 0.0 0.00 0.00 0.00 84 1006.0
20260831045823 76 190 0.0 0.0 0.00 0.00 0.00 84 1006.1
20260831045339 76 151 0.0 0.0 0.00 0.00 0.00 84 1006.2
20260831044826 76 195 0.0 0.0 0.00 0.00 0.00 84 1006.3
20260831044326 76 196 0.0 0.0 0.00 0.00 0.00 83 1006.4
20260831043821 76 190 0.0 0.0 0.00 0.00 0.00 83 1006.4
20260831043337 76 211 0.0 0.0 0.00 0.00 0.00 83 1006.4
20260831042834 76 215 0.0 0.0 0.00 0.00 0.00 83 1006.5
20260831042322 76 202 0.0 0.0 0.00 0.00 0.00 83 1006.6
20260831041817 77 205 0.0 0.0 0.00 0.00 0.00 83 1006.6
20260831041340 77 198 0.0 0.0 0.00 0.00 0.00 82 1006.5
20260831040835 77 192 0.0 0.0 0.00 0.00 0.00 82 1006.5
20260831040322 77 235 0.0 0.0 0.00 0.00 0.00 82 1006.4
20260831035833 77 205 0.0 0.0 0.00 0.00 0.00 82 1006.4
20260831035319 77 201 0.0 0.0 0.00 0.00 0.00 82 1006.4
20260831034832 77 196 0.0 0.0 0.00 0.00 0.00 81 1006.4
20260831034334 77 150 0.0 0.0 0.00 0.00 0.00 81 1006.4
20260831033821 77 200 0.0 0.0 0.00 0.00 0.00 81 1006.4
20260831033318 77 220 0.0 0.0 0.00 0.00 0.00 81 1006.4
20260831032820 78 213 0.0 0.0 0.00 0.00 0.00 81 1006.4
20260831032328 78 202 0.0 1.0 0.00 0.00 0.00 81 1006.3
20260831031846 78 202 0.0 1.0 0.00 0.00 0.00 80 1006.3
20260831031320 78 192 0.0 1.0 0.00 0.00 0.00 80 1006.3
20260831030835 78 229 0.0 1.0 0.00 0.00 0.00 80 1006.2
20260831030326 78 252 0.0 0.0 0.00 0.00 0.00 80 1006.2
20260831025826 77 163 0.0 0.0 0.00 0.00 0.00 80 1006.2
20260831025323 77 202 0.0 0.0 0.00 0.00 0.00 81 1006.1
20260831024829 77 196 0.0 1.0 0.00 0.00 0.00 81 1006.0
20260831024337 77 203 0.0 0.0 0.00 0.00 0.00 82 1006.0
20260831023824 77 190 0.0 0.0 0.00 0.00 0.00 84 1005.9
20260831023339 77 213 0.0 0.0 0.00 0.00 0.00 85 1006.0
20260831022821 77 228 0.0 0.0 0.00 0.00 0.00 85 1006.1
20260831022328 77 219 0.0 0.0 0.00 0.00 0.00 85 1006.1
20260831021824 77 118 0.0 0.0 0.00 0.00 0.00 85 1006.1
20260831021326 77 118 0.0 0.0 0.00 0.00 0.00 85 1006.1
20260831020842 78 117 0.0 0.0 0.00 0.00 0.00 84 1006.0
20260831020328 78 117 0.0 0.0 0.00 0.00 0.00 84 1005.9
20260831015829 78 115 327.0 327.0 0.00 0.00 0.00 84 1005.4
20260831015324 78 105 0.0 0.0 0.00 0.00 0.00 83 1005.9
20260831014831 78 144 0.0 0.0 0.00 0.00 0.00 83 1005.9
20260831014359 78 88 0.0 0.0 0.00 0.00 0.00 83 1005.9
20260831013826 79 126 0.0 0.0 0.00 0.00 0.00 83 1005.9
20260831013341 79 127 0.0 0.0 0.00 0.00 0.00 82 1005.8
20260831012823 79 101 0.0 0.0 0.00 0.00 0.00 82 1005.8
20260831012339 79 107 0.0 0.0 0.00 0.00 0.00 82 1005.8
20260831011826 79 110 0.0 0.0 0.00 0.00 0.00 81 1005.8
20260831011326 79 105 0.0 0.0 0.00 0.00 0.00 81 1005.8
20260831010843 79 92 0.0 0.0 0.00 0.00 0.00 81 1005.7
20260831010327 80 88 0.0 0.0 0.00 0.00 0.00 80 1005.6
20260831005822 80 119 0.0 0.0 0.00 0.00 0.00 80 1005.6
20260831005337 80 129 0.0 0.0 0.00 0.00 0.00 80 1005.7
20260831004832 80 109 0.0 0.0 0.00 0.00 0.00 79 1005.7
20260831004314 80 113 0.0 1.0 0.00 0.00 0.00 79 1005.5
20260831003822 81 98 0.0 1.0 0.00 0.00 0.00 79 1005.6
20260831003337 81 113 0.0 2.0 0.00 0.00 0.00 78 1005.6
20260831002817 81 109 0.0 1.0 0.00 0.00 0.00 78 1005.6
20260831002333 81 111 0.0 1.0 0.00 0.00 0.00 78 1005.7
20260831001845 81 88 0.0 1.0 0.00 0.00 0.00 78 1005.7
20260831001326 81 126 0.0 0.0 0.00 0.00 0.00 78 1005.7
20260831000843 82 116 0.0 1.0 0.00 0.00 0.00 77 1005.6
20260831000325 82 119 0.0 1.0 0.00 0.00 0.00 77 1005.7
20260830235826 82 113 0.0 1.0 0.00 0.00 0.00 77 1005.6
20260830235341 82 141 0.0 1.0 0.00 0.00 0.00 77 1005.6
20260830234827 82 78 0.0 2.0 0.00 0.00 0.00 76 1005.5
20260830234328 82 78 0.0 2.0 0.00 0.00 0.00 76 1005.5
20260830233824 82 104 0.0 2.0 0.00 0.00 0.00 75 1005.5
20260830233329 83 123 0.0 2.0 0.00 0.00 0.00 76 1005.5
20260830232859 83 61 0.0 1.0 0.00 0.00 0.00 75 1005.7
20260830232324 83 117 0.0 2.0 0.00 0.00 0.00 75 1005.8
20260830231819 83 101 0.0 2.0 0.00 0.00 0.00 75 1005.6
20260830231323 83 151 0.0 2.0 0.00 0.00 0.00 75 1005.7
20260830230829 83 129 0.0 2.0 0.00 0.00 0.00 75 1005.6
20260830230323 83 138 0.0 1.0 0.00 0.00 0.00 75 1005.6
20260830225826 83 84 0.0 4.0 0.00 0.00 0.00 74 1005.8
20260830225343 83 113 0.0 4.0 0.00 0.00 0.00 75 1005.7
20260830224845 83 140 0.0 1.0 0.00 0.00 0.00 75 1005.5
20260830224325 83 163 0.0 2.0 0.00 0.00 0.00 75 1005.5
20260830223831 83 93 0.0 2.0 0.00 0.00 0.00 75 1005.5
20260830223325 83 155 0.0 0.0 0.00 0.00 0.00 76 1005.6
20260830222826 83 105 0.0 2.0 0.00 0.00 0.00 76 1005.7
20260830222341 83 102 0.0 2.0 0.00 0.00 0.00 75 1005.6
20260830221855 83 144 0.0 1.0 0.00 0.00 0.00 75 1005.7
20260830221335 83 114 0.0 1.0 0.00 0.00 0.00 75 1005.7
20260830220821 83 93 0.0 1.0 0.00 0.00 0.00 75 1005.8